TimeEDT,TemperatureF,Dew PointF,Humidity,Sea Level PressureIn,VisibilityMPH,Wind Direction,Wind SpeedMPH,Gust SpeedMPH,PrecipitationIn,Events,Conditions,WindDirDegrees,DateUTC
12:55 AM,36.0,32.9,89,29.92,10.0,SSW,6.9,-,N/A,,Clear,210,2013-03-19 04:55:00
1:55 AM,36.0,33.3,90,29.95,10.0,SW,8.1,-,N/A,,Clear,220,2013-03-19 05:55:00
2:55 AM,37.0,33.6,87,29.97,10.0,SW,9.2,-,N/A,,Clear,220,2013-03-19 06:55:00
3:55 AM,37.4,33.3,85,29.99,10.0,West,9.2,-,N/A,,Clear,260,2013-03-19 07:55:00
4:55 AM,35.8,32.2,87,29.99,10.0,West,6.9,-,N/A,,Clear,260,2013-03-19 08:55:00
5:55 AM,33.6,29.7,85,30.00,10.0,West,6.9,-,N/A,,Clear,260,2013-03-19 09:55:00
6:55 AM,32.2,28.4,86,30.02,10.0,West,8.1,-,N/A,,Clear,270,2013-03-19 10:55:00
8:55 AM,32.2,24.6,74,30.09,10.0,WSW,11.5,-,N/A,,Clear,250,2013-03-19 12:55:00
9:55 AM,33.1,23.2,67,30.09,10.0,West,11.5,-,N/A,,Clear,260,2013-03-19 13:55:00
10:55 AM,36.0,23.2,60,30.10,10.0,WSW,13.8,20.7,N/A,,Clear,250,2013-03-19 14:55:00
11:55 AM,38.7,21.0,49,30.13,10.0,West,15.0,25.3,N/A,,Clear,270,2013-03-19 15:55:00
12:55 PM,42.4,18.5,38,30.13,10.0,WSW,18.4,24.2,N/A,,Clear,240,2013-03-19 16:55:00
1:55 PM,45.1,18.7,35,30.15,10.0,West,17.3,25.3,N/A,,Clear,270,2013-03-19 17:55:00
2:55 PM,46.6,18.0,32,30.14,10.0,West,23.0,26.5,N/A,,Clear,270,2013-03-19 18:55:00
3:55 PM,47.1,14.9,28,30.14,10.0,West,16.1,24.2,N/A,,Clear,280,2013-03-19 19:55:00
4:55 PM,47.1,13.6,26,30.15,10.0,WNW,16.1,25.3,N/A,,Clear,290,2013-03-19 20:55:00
5:55 PM,46.2,13.8,27,30.15,10.0,West,12.7,19.6,N/A,,Clear,280,2013-03-19 21:55:00
6:55 PM,44.6,14.0,29,30.16,10.0,West,10.4,-,N/A,,Clear,260,2013-03-19 22:55:00
7:55 PM,39.4,14.5,36,30.17,10.0,West,4.6,-,N/A,,Clear,280,2013-03-19 23:55:00
8:55 PM,37.9,14.2,38,30.18,10.0,West,5.8,-,N/A,,Scattered Clouds,280,2013-03-20 00:55:00
9:55 PM,35.4,14.7,43,30.18,10.0,West,3.5,-,N/A,,Partly Cloudy,260,2013-03-20 01:55:00
10:55 PM,33.3,17.1,51,30.18,10.0,West,5.8,-,N/A,,Partly Cloudy,260,2013-03-20 02:55:00
11:55 PM,31.6,17.1,55,30.18,10.0,West,3.5,-,N/A,,Clear,260,2013-03-20 03:55:00